TimeEDT,TemperatureF,Dew PointF,Humidity,Sea Level PressureIn,VisibilityMPH,Wind Direction,Wind SpeedMPH,Gust SpeedMPH,PrecipitationIn,Events,Conditions,WindDirDegrees,DateUTC
12:53 AM,69.1,68.0,96,29.88,10.0,Calm,Calm,-,N/A,,Partly Cloudy,0,2012-10-18 04:53:00
1:53 AM,69.1,68.0,96,29.86,10.0,South,5.8,-,N/A,,Partly Cloudy,170,2012-10-18 05:53:00
2:27 AM,69.8,68.0,94,29.86,10.0,South,4.6,-,N/A,,Partly Cloudy,180,2012-10-18 06:27:00
2:41 AM,69.8,69.8,100,29.85,10.0,South,5.8,-,N/A,,Mostly Cloudy,180,2012-10-18 06:41:00
2:53 AM,70.0,69.1,97,29.85,10.0,South,8.1,-,N/A,,Overcast,180,2012-10-18 06:53:00
3:53 AM,70.0,69.1,97,29.84,10.0,South,5.8,-,N/A,,Overcast,180,2012-10-18 07:53:00
4:53 AM,71.1,69.1,93,29.84,10.0,South,4.6,-,N/A,,Mostly Cloudy,190,2012-10-18 08:53:00
5:53 AM,70.0,69.1,97,29.86,10.0,SSW,5.8,-,N/A,,Mostly Cloudy,200,2012-10-18 09:53:00
6:53 AM,71.1,69.1,93,29.88,10.0,SW,4.6,-,N/A,,Overcast,220,2012-10-18 10:53:00
7:48 AM,69.8,69.8,100,29.89,10.0,Calm,Calm,-,N/A,,Scattered Clouds,0,2012-10-18 11:48:00
7:53 AM,70.0,69.1,97,29.89,10.0,Calm,Calm,-,N/A,,Scattered Clouds,0,2012-10-18 11:53:00
8:53 AM,72.0,69.1,91,29.91,10.0,Calm,Calm,-,N/A,,Scattered Clouds,0,2012-10-18 12:53:00
9:53 AM,75.9,70.0,82,29.91,10.0,West,3.5,-,N/A,,Scattered Clouds,260,2012-10-18 13:53:00
10:53 AM,79.0,70.0,74,29.90,10.0,Variable,3.5,-,N/A,,Scattered Clouds,0,2012-10-18 14:53:00
11:53 AM,82.9,69.1,63,29.89,10.0,South,5.8,-,N/A,,Scattered Clouds,170,2012-10-18 15:53:00
12:53 PM,84.0,70.0,63,29.86,10.0,SE,8.1,-,N/A,,Scattered Clouds,140,2012-10-18 16:53:00
1:53 PM,84.9,69.1,59,29.83,10.0,SSE,4.6,-,N/A,,Scattered Clouds,150,2012-10-18 17:53:00
2:53 PM,86.0,69.1,57,29.81,10.0,SSE,6.9,-,N/A,,Scattered Clouds,150,2012-10-18 18:53:00
3:53 PM,86.0,70.0,59,29.81,10.0,South,9.2,-,N/A,,Mostly Cloudy,190,2012-10-18 19:53:00
4:53 PM,86.0,70.0,59,29.81,10.0,South,3.5,-,N/A,,Mostly Cloudy,180,2012-10-18 20:53:00
5:53 PM,84.9,70.0,61,29.82,10.0,South,4.6,-,N/A,,Mostly Cloudy,190,2012-10-18 21:53:00
6:53 PM,80.1,71.1,74,29.82,10.0,SSE,5.8,-,N/A,,Mostly Cloudy,160,2012-10-18 22:53:00
7:53 PM,79.0,71.1,77,29.84,10.0,Calm,Calm,-,N/A,,Scattered Clouds,0,2012-10-18 23:53:00
8:53 PM,77.0,71.1,82,29.85,10.0,Calm,Calm,-,N/A,,Scattered Clouds,0,2012-10-19 00:53:00
9:53 PM,79.0,73.0,82,29.86,10.0,South,6.9,-,N/A,,Mostly Cloudy,190,2012-10-19 01:53:00
10:12 PM,78.8,73.4,83,29.88,10.0,South,10.4,-,N/A,,Mostly Cloudy,180,2012-10-19 02:12:00
10:26 PM,78.8,73.4,83,29.88,10.0,SSW,3.5,-,N/A,,Mostly Cloudy,210,2012-10-19 02:26:00
10:53 PM,77.0,70.0,79,29.88,10.0,Calm,Calm,-,N/A,,Scattered Clouds,0,2012-10-19 02:53:00
11:53 PM,75.9,66.9,74,29.88,10.0,NW,3.5,-,N/A,,Mostly Cloudy,320,2012-10-19 03:53:00